WetterOnline ( https://www.wetteronline.at )

Wetter aktuell Mühldorf

Aktuelles Wetter: Mühldorf am Inn (410m)

6-stündlich | Neueste Meldungen
Ortszeit Temperatur Wetter
Fr, 14.05. 20:00 15.7° C leicht bewölkt
Fr, 14.05. 14:00 15.8° C bewölkt
Fr, 14.05. 8:00 9.9° C fast wolkenlos
Fr, 14.05. 2:00 9.4° C Sprühregen
Do, 13.05. 20:00 11.2° C bedeckt
Do, 13.05. 14:00 12.3° C Regen
Do, 13.05. 8:00 9.4° C leichter Regen
Do, 13.05. 2:00 9.6° C leichter Regen
Ortszeit Temperatur Wetter
Sa, 15.05. 1:00 11.0° C bedeckt
Sa, 15.05. 0:50 11.0° C bedeckt
Sa, 15.05. 0:40 9.7° C bedeckt
Sa, 15.05. 0:30 7.9° C bewölkt
Sa, 15.05. 0:20 7.9° C bewölkt
Sa, 15.05. 0:10 7.7° C bedeckt
Sa, 15.05. 0:00 7.9° C bedeckt
Fr, 14.05. 23:30 8.2° C bedeckt
Fr, 14.05. 23:00 7.9° C bewölkt
Fr, 14.05. 22:30 8.7° C fast wolkenlos
Fr, 14.05. 22:00 9.7° C wolkig
Ortszeit Relative Feuchte Sichtweite
Fr, 14.05. 20:00 58% 60 km
Fr, 14.05. 14:00 54% 60 km
Fr, 14.05. 8:00 75% 50 km
Fr, 14.05. 2:00 90% 50 km
Do, 13.05. 20:00 85% 50 km
Do, 13.05. 14:00 77% 40 km
Do, 13.05. 8:00 93% 8 km
Do, 13.05. 2:00 95% 9 km
Ortszeit Relative Feuchte Sichtweite
Sa, 15.05. 1:00 77% 55 km
Sa, 15.05. 0:50 77% -
Sa, 15.05. 0:40 86% -
Sa, 15.05. 0:30 95% 55 km
Sa, 15.05. 0:20 95% -
Sa, 15.05. 0:10 95% -
Sa, 15.05. 0:00 95% 50 km
Fr, 14.05. 23:30 93% 65 km
Fr, 14.05. 23:00 94% 50 km
Fr, 14.05. 22:30 91% 55 km
Fr, 14.05. 22:00 87% >70 km
Ortszeit Niederschlagsmenge Niederschlagsart
Fr, 14.05. 20:00 0.0 l/m2 in 12 Std. -
Fr, 14.05. 14:00 0.0 l/m2 in 6 Std. -
Fr, 14.05. 8:00 0.7 l/m2 in 12 Std. Regen
Fr, 14.05. 2:00 0.7 l/m2 in 6 Std. Regen
Do, 13.05. 20:00 2 l/m2 in 12 Std. Regen
Do, 13.05. 14:00 1 l/m2 in 6 Std. Regen
Do, 13.05. 8:00 7 l/m2 in 12 Std. Regen
Do, 13.05. 2:00 1 l/m2 in 6 Std. Regen
Ortszeit Niederschlagsmenge Niederschlagsart
Sa, 15.05. 1:00 0.0 l/m2 in 1 Std. -
Sa, 15.05. 0:50 keine Meldung -
Sa, 15.05. 0:40 keine Meldung -
Sa, 15.05. 0:30 0.0 l/m2 in 1 Std. -
Sa, 15.05. 0:20 keine Meldung -
Sa, 15.05. 0:10 keine Meldung -
Sa, 15.05. 0:00 0.0 l/m2 in 1 Std. -
Fr, 14.05. 23:30 0.0 l/m2 in 1 Std. -
Fr, 14.05. 23:00 0.0 l/m2 in 1 Std. -
Fr, 14.05. 22:30 0.0 l/m2 in 1 Std. -
Fr, 14.05. 22:00 0.0 l/m2 in 1 Std. -
Ortszeit Stärke Spitze Richtung
km/h Bft. km/h Grad Sektor
Fr, 14.05. 20:00 4 1 22 160° S
Fr, 14.05. 14:00 9 2 26 260° W
Fr, 14.05. 8:00 11 2 25 260° W
Fr, 14.05. 2:00 17 3 31 270° W
Do, 13.05. 20:00 14 3 25 260° W
Do, 13.05. 14:00 17 3 33 290° W
Do, 13.05. 8:00 22 4 29 290° W
Do, 13.05. 2:00 14 3 29 270° W
Ortszeit Stärke Spitze Richtung
km/h Bft. km/h Grad Sektor
Sa, 15.05. 1:00 17 3 28 290° W
Sa, 15.05. 0:50 17 3 - 290° W
Sa, 15.05. 0:40 9 2 - 300° NW
Sa, 15.05. 0:30 2 1 6 290° W
Sa, 15.05. 0:20 2 1 - 290° W
Sa, 15.05. 0:10 4 1 - 310° NW
Sa, 15.05. 0:00 0 0 4 270° W
Fr, 14.05. 23:30 0 0 4 - -
Fr, 14.05. 23:00 4 1 7 290° W
Fr, 14.05. 22:30 4 1 4 300° NW
Fr, 14.05. 22:00 4 1 7 40° NO
Ortszeit Untergrenze Bedeckung Gattung
total tief tief mittel hoch
Fr, 14.05. 20:00 7500 m 7/8 0/8 - - -
Fr, 14.05. 14:00 1440 m 8/8 7/8 - - -
Fr, 14.05. 8:00 7200 m 2/8 0/8 - - -
Fr, 14.05. 2:00 960 m 8/8 8/8 - - -
Do, 13.05. 20:00 1440 m 8/8 8/8 - - -
Do, 13.05. 14:00 600 m 7/8 7/8 - - -
Do, 13.05. 8:00 330 m 7/8 7/8 - - -
Do, 13.05. 2:00 360 m 8/8 8/8 - - -
Ortszeit Bedeckungsgrad in Achtel und Wolkenuntergrenze
Sa, 15.05. 1:00 6(1500m) 6(1800m) 8(2400m)
Sa, 15.05. 0:50 6(1500m) 6(1800m) 8(2400m)
Sa, 15.05. 0:40 4(1500m) 6(1800m) 8(2700m)
Sa, 15.05. 0:30 3(1800m) 4(2700m) 8(4500m)
Sa, 15.05. 0:20 3(1800m) 4(2700m) 8(4500m)
Sa, 15.05. 0:10 8(4500m)
Sa, 15.05. 0:00 8(4500m)
Fr, 14.05. 23:30 7(4800m) 8(5100m)
Fr, 14.05. 23:00 2(5700m) 6(6300m) 7(7200m)
Fr, 14.05. 22:30 2(7800m)
Fr, 14.05. 22:00 7(7800m) 7(8100m)
Ortszeit Luftdruck NN (hPa) Tendenz (hPa in 3 Std.)
Fr, 14.05. 20:00 1008 0,0
Fr, 14.05. 14:00 1008 - 0,3
Fr, 14.05. 8:00 1010 + 0,6
Fr, 14.05. 2:00 1009 + 0,2
Do, 13.05. 20:00 1007 + 0,4
Do, 13.05. 14:00 1007 - 0,5
Do, 13.05. 8:00 1008 - 0,4
Do, 13.05. 2:00 1009 - 1,0
Ortszeit Luftdruck NN (hPa) Tendenz (hPa in 3 Std.)
Sa, 15.05. 1:00 1011 + 1,0
Sa, 15.05. 0:50 1011 keine Meldung
Sa, 15.05. 0:40 1011 keine Meldung
Sa, 15.05. 0:30 1011 + 1,0
Sa, 15.05. 0:20 1011 keine Meldung
Sa, 15.05. 0:10 1011 keine Meldung
Sa, 15.05. 0:00 1011 + 1,1
Fr, 14.05. 23:30 1011 + 1,4
Fr, 14.05. 23:00 1011 + 1,3
Fr, 14.05. 22:30 1010 + 1,2
Fr, 14.05. 22:00 1010 + 1,2
Ortszeit Schneehöhe (cm)
Fr, 14.05. 20:00 0
Fr, 14.05. 14:00 0
Fr, 14.05. 8:00 0
Fr, 14.05. 2:00 0
Do, 13.05. 20:00 0
Do, 13.05. 14:00 0
Do, 13.05. 8:00 0
Do, 13.05. 2:00 0
Ortszeit Schneehöhe (cm)
Sa, 15.05. 1:00 0
Sa, 15.05. 0:50 0
Sa, 15.05. 0:40 0
Sa, 15.05. 0:30 0
Sa, 15.05. 0:20 0
Sa, 15.05. 0:10 0
Sa, 15.05. 0:00 0
Fr, 14.05. 23:30 0
Fr, 14.05. 23:00 0
Fr, 14.05. 22:30 0
Fr, 14.05. 22:00 0
Link zu dieser Seite / Seite empfehlen

Das Wetter in ...